Benton Harbor, MI

6:00 AM EDT on August 18, 2017 (GMT -0400)
Southwest Michigan Regional

Weather History for KBEH - October, 2012

Change the Weather History Date:

Friday, October 19, 2012

  Actual Average Record
Temperature  
Mean Temperature 48 °F -  
Max Temperature 51 °F 57 °F 82 °F (1953)
Min Temperature 44 °F 39 °F 23 °F (1972)
Degree Days  
Heating Degree Days 18    
Moisture  
Dew Point 44 °F    
Average Humidity 90    
Maximum Humidity 100    
Minimum Humidity 77    
Precipitation  
Precipitation 0.27 in - - ()
Sea Level Pressure  
Sea Level Pressure 29.51 in    
Wind  
Wind Speed 7 mph (South)    
Max Wind Speed 13 mph    
Max Gust Speed 18 mph    
Visibility 8 miles    
Events Rain    
Averages and records for this station are not official NWS values.
T = Trace of Precipitation, MM = Missing Value Source: NWS Daily Summary

Daily Weather History Graph

Daily Weather History Graph

Search for Another Location

Airport or City:

Trip Planner

Search our weather history database for the weather conditions in past years. The results will help you decide how hot, cold, wet, or windy it might be!

Date:

Astronomy

Oct. 19, 2012 Rise Set
Actual Time 8:03 AM EDT 6:56 PM EDT
Civil Twilight 7:35 AM EDT 7:25 PM EDT
Nautical Twilight 7:02 AM EDT 7:57 PM EDT
Astronomical Twilight 6:30 AM EDT 8:30 PM EDT
Moon 12:49 PM EDT (10/19) 10:31 PM EDT (10/19)
Length of Visible Light 11h 50m
Length of Day
10h 53m
Waxing Crescent, 23% of the Moon is Illuminated
Oct 19
Waxing Crescent
Oct 21
First Quarter
Oct 29
Full
Nov 6
Last Quarter
Nov 13
New

Hourly Weather History & Observations

Time (EDT) Temp. Windchill Dew Point Humidity Pressure Visibility Wind Dir Wind Speed Gust Speed Precip Events Conditions
12:53 AM 45.0 °F 39.7 °F 42.1 °F 90% 29.55 in 10.0 mi SSE 10.4 mph 17.3 mph N/A   Overcast
1:53 AM 45.0 °F 40.1 °F 43.0 °F 93% 29.54 in 10.0 mi SSE 9.2 mph - N/A   Overcast
2:53 AM 45.0 °F 41.2 °F 43.0 °F 93% 29.53 in 8.0 mi SE 6.9 mph - 0.01 in Rain Light Rain
3:04 AM 44.6 °F 40.2 °F 42.8 °F 93% 29.52 in 7.0 mi SE 8.1 mph - 0.00 in Rain Light Rain
3:38 AM 44.6 °F 39.7 °F 42.8 °F 93% 29.52 in 7.0 mi SE 9.2 mph - 0.01 in Rain Light Rain
3:53 AM 45.0 °F 41.2 °F 43.0 °F 93% 29.52 in 7.0 mi SE 6.9 mph - 0.02 in Rain Light Rain
4:53 AM 45.0 °F 41.2 °F 43.0 °F 93% 29.51 in 7.0 mi SE 6.9 mph - 0.01 in   Overcast
5:29 AM 44.6 °F 40.7 °F 44.6 °F 100% 29.50 in 5.0 mi ESE 6.9 mph - 0.00 in Rain Light Rain
5:38 AM 44.6 °F 42.2 °F 44.6 °F 100% 29.49 in 5.0 mi ESE 4.6 mph - 0.01 in Rain Light Rain
5:53 AM 45.0 °F 41.8 °F 44.1 °F 97% 29.49 in 6.0 mi ESE 5.8 mph - 0.01 in Rain Light Rain
6:03 AM 44.6 °F 40.2 °F 44.6 °F 100% 29.49 in 9.0 mi ESE 8.1 mph - 0.00 in   Overcast
6:53 AM 45.0 °F 41.8 °F 44.1 °F 97% 29.49 in 4.0 mi SE 5.8 mph - 0.02 in Rain Light Rain
7:09 AM 46.4 °F 42.9 °F 44.6 °F 93% 29.48 in 3.0 mi SSE 6.9 mph - 0.03 in Rain Rain
7:16 AM 46.4 °F 44.3 °F 44.6 °F 93% 29.48 in 2.5 mi SSE 4.6 mph - 0.06 in Rain Rain
7:20 AM 44.6 °F 42.2 °F 44.6 °F 100% 29.48 in 1.8 mi South 4.6 mph - 0.08 in Rain Heavy Rain
7:28 AM 46.4 °F 42.9 °F 42.8 °F 87% 29.48 in 3.0 mi South 6.9 mph - 0.10 in Rain Light Rain
7:40 AM 44.6 °F 40.2 °F 42.8 °F 93% 29.48 in 2.5 mi South 8.1 mph - 0.13 in Rain Rain
7:49 AM 44.6 °F 39.7 °F 44.6 °F 100% 29.48 in 4.0 mi SSE 9.2 mph - 0.14 in Rain Light Rain
7:53 AM 45.0 °F 40.1 °F 44.1 °F 97% 29.49 in 5.0 mi SSE 9.2 mph - 0.14 in Rain Light Rain
8:08 AM 44.6 °F 40.7 °F 42.8 °F 93% 29.48 in 6.0 mi SSE 6.9 mph - 0.02 in Rain Light Rain
8:53 AM 44.1 °F 40.1 °F 43.0 °F 96% 29.49 in 9.0 mi SSE 6.9 mph - 0.03 in   Overcast
9:53 AM 45.0 °F 41.2 °F 44.1 °F 97% 29.49 in 10.0 mi SSE 6.9 mph - N/A   Overcast
10:53 AM 46.9 °F - 44.1 °F 90% 29.49 in 9.0 mi SSE 8.1 mph - N/A   Overcast
11:00 AM 46.4 °F 41.1 °F 44.6 °F 93% 29.48 in 7.0 mi SSE 11.5 mph - 0.00 in Rain Light Rain
11:53 AM 46.9 °F - 45.0 °F 93% 29.50 in 10.0 mi SSE 8.1 mph - 0.01 in   Overcast
12:53 PM 48.9 °F - 45.0 °F 86% 29.50 in 10.0 mi South 6.9 mph - N/A   Overcast
1:36 PM 48.2 °F - 44.6 °F 87% 29.49 in 10.0 mi WSW 4.6 mph - N/A   Overcast
1:46 PM 48.2 °F - 44.6 °F 87% 29.48 in 10.0 mi Calm Calm - 0.00 in Rain Light Rain
1:53 PM 51.1 °F - 45.0 °F 80% 29.49 in 10.0 mi SSW 3.5 mph - 0.00 in Rain Light Rain
2:53 PM 50.0 °F - 45.0 °F 83% 29.49 in 10.0 mi West 8.1 mph - N/A   Overcast
3:31 PM 50.0 °F - 44.6 °F 82% 29.49 in 10.0 mi WNW 6.9 mph - N/A   Overcast
3:53 PM 50.0 °F - 43.0 °F 77% 29.50 in 10.0 mi West 8.1 mph - N/A   Mostly Cloudy
4:48 PM 50.0 °F - 44.6 °F 82% 29.51 in 10.0 mi WNW 3.5 mph - N/A   Overcast
4:53 PM 50.0 °F - 44.1 °F 80% 29.52 in 10.0 mi Calm Calm - N/A   Overcast
5:04 PM 50.0 °F - 44.6 °F 82% 29.52 in 10.0 mi West 4.6 mph - N/A   Overcast
5:53 PM 50.0 °F - 43.0 °F 77% 29.54 in 10.0 mi NW 3.5 mph - N/A   Overcast
6:53 PM 48.0 °F - 43.0 °F 83% 29.55 in 10.0 mi West 3.5 mph - N/A   Overcast
7:53 PM 46.9 °F - 43.0 °F 86% 29.57 in 10.0 mi Calm Calm - N/A   Mostly Cloudy
8:53 PM 45.0 °F 43.5 °F 44.1 °F 97% 29.58 in 10.0 mi West 3.5 mph - N/A   Mostly Cloudy
10:53 PM 50.0 °F - 43.0 °F 77% 29.58 in 10.0 mi West 12.7 mph - N/A   Overcast
11:23 PM 48.2 °F - 44.6 °F 87% 29.58 in 10.0 mi WNW 10.4 mph 17.3 mph N/A   Overcast
11:33 PM 48.2 °F - 42.8 °F 82% 29.58 in 10.0 mi WNW 9.2 mph 18.4 mph N/A   Overcast
11:53 PM 48.0 °F - 45.0 °F 89% 29.59 in 6.0 mi WNW 4.6 mph - 0.02 in Rain Light Rain